When you browse on this site, cookies collect data to enhance your experience and personalize the content and advertising you see.
Visit our Privacy Policy to learn more. By continuing to use the site, you agree to this use of cookies and data.
  • en France
  • Liste des pays
  • À 7 jours
  • Température de l'eau
  • Carte météo
  • Widgets météo
  • user-avatar
    Se connecter

    Météo par heure à Masvingo

    Ce jour, 23 Août, Vendredi

    Heure Température Précipitation Vent Pression Humidité
    00:00 +11°C° 0 mm 1 m/s 676 mmHg 75%
    01:00 +11°C° 0 mm 1 m/s 676 mmHg 79%
    02:00 +10°C° 0 mm 1 m/s 675 mmHg 83%
    03:00 +10°C° 0 mm 1 m/s 675 mmHg 85%
    04:00 +10°C° 0 mm 1 m/s 675 mmHg 87%
    05:00 +9°C° 0 mm 1 m/s 675 mmHg 89%
    06:00 +11°C° 0 mm 1 m/s 676 mmHg 81%
    07:00 +13°C° 0 mm 1 m/s 676 mmHg 73%
    08:00 +15°C° 0 mm 1 m/s 677 mmHg 66%
    09:00 +17°C° 0 mm 2 m/s 678 mmHg 55%
    10:00 +19°C° 0 mm 3 m/s 678 mmHg 43%
    11:00 +22°C° 0 mm 4 m/s 678 mmHg 32%
    12:00 +23°C° 0 mm 4 m/s 678 mmHg 29%
    13:00 +23°C° 0 mm 4 m/s 677 mmHg 26%
    14:00 +25°C° 0 mm 5 m/s 677 mmHg 23%
    15:00 +23°C° 0 mm 4 m/s 677 mmHg 25%
    16:00 +23°C° 0 mm 4 m/s 676 mmHg 27%
    17:00 +22°C° 0 mm 4 m/s 676 mmHg 28%
    18:00 +20°C° 0 mm 3 m/s 676 mmHg 34%
    19:00 +17°C° 0 mm 3 m/s 676 mmHg 40%
    20:00 +15°C° 0 mm 2 m/s 676 mmHg 46%
    21:00 +15°C° 0 mm 2 m/s 676 mmHg 50%
    22:00 +14°C° 0 mm 2 m/s 676 mmHg 53%
    23:00 +13°C° 0 mm 2 m/s 676 mmHg 56%

    Demain, 24 Août, Samedi

    Heure Température Précipitation Vent Pression Humidité
    00:00 +13°C° 0 mm 2 m/s 676 mmHg 59%
    01:00 +12°C° 0 mm 1 m/s 676 mmHg 61%
    02:00 +12°C° 0 mm 1 m/s 675 mmHg 64%
    03:00 +11°C° 0 mm 1 m/s 675 mmHg 66%
    04:00 +11°C° 0 mm 1 m/s 675 mmHg 68%
    05:00 +11°C° 0 mm 1 m/s 675 mmHg 70%
    06:00 +13°C° 0 mm 2 m/s 676 mmHg 62%
    07:00 +15°C° 0 mm 2 m/s 676 mmHg 54%
    08:00 +17°C° 0 mm 3 m/s 677 mmHg 47%
    09:00 +19°C° 0 mm 3 m/s 678 mmHg 40%
    10:00 +20°C° 0 mm 4 m/s 678 mmHg 34%
    11:00 +22°C° 0 mm 5 m/s 678 mmHg 28%
    12:00 +23°C° 0 mm 5 m/s 678 mmHg 29%
    13:00 +23°C° 0 mm 5 m/s 677 mmHg 30%
    14:00 +25°C° 0 mm 5 m/s 676 mmHg 31%
    15:00 +23°C° 0 mm 5 m/s 676 mmHg 33%
    16:00 +22°C° 0 mm 4 m/s 675 mmHg 35%
    17:00 +22°C° 0 mm 4 m/s 675 mmHg 37%
    18:00 +20°C° 0 mm 3 m/s 675 mmHg 44%
    19:00 +18°C° 0 mm 3 m/s 675 mmHg 50%
    20:00 +16°C° 0 mm 2 m/s 675 mmHg 57%
    21:00 +15°C° 0 mm 2 m/s 675 mmHg 64%
    22:00 +14°C° 0 mm 2 m/s 675 mmHg 72%
    23:00 +14°C° 0 mm 2 m/s 675 mmHg 79%

    Après-demain, 25 Août, Dimanche

    Heure Température Précipitation Vent Pression Humidité
    00:00 +13°C° 0 mm 2 m/s 675 mmHg 81%
    01:00 +13°C° 0 mm 2 m/s 674 mmHg 83%
    02:00 +12°C° 0 mm 2 m/s 674 mmHg 85%
    03:00 +12°C° 0 mm 1 m/s 674 mmHg 86%
    04:00 +11°C° 0 mm 1 m/s 674 mmHg 88%
    05:00 +11°C° 0 mm 1 m/s 673 mmHg 90%
    06:00 +13°C° 0 mm 1 m/s 674 mmHg 80%
    07:00 +15°C° 0 mm 1 m/s 675 mmHg 70%
    08:00 +18°C° 0 mm 1 m/s 676 mmHg 61%
    09:00 +21°C° 0 mm 1 m/s 676 mmHg 50%
    10:00 +23°C° 0 mm 2 m/s 677 mmHg 40%
    11:00 +26°C° 0 mm 2 m/s 677 mmHg 30%
    12:00 +27°C° 0 mm 2 m/s 676 mmHg 26%
    13:00 +28°C° 0 mm 2 m/s 676 mmHg 23%
    14:00 +29°C° 0 mm 2 m/s 675 mmHg 20%
    15:00 +28°C° 0 mm 2 m/s 675 mmHg 21%
    16:00 +28°C° 0 mm 3 m/s 674 mmHg 22%
    17:00 +27°C° 0 mm 3 m/s 674 mmHg 24%
    18:00 +24°C° 0 mm 3 m/s 674 mmHg 29%
    19:00 +21°C° 0 mm 2 m/s 674 mmHg 35%
    20:00 +19°C° 0 mm 2 m/s 674 mmHg 40%
    21:00 +18°C° 0 mm 2 m/s 674 mmHg 44%
    22:00 +17°C° 0 mm 2 m/s 674 mmHg 48%
    23:00 +16°C° 0 mm 2 m/s 674 mmHg 53%

    26 Août, Lundi

    Heure Température Précipitation Vent Pression Humidité
    00:00 +16°C° 0 mm 2 m/s 674 mmHg 57%
    01:00 +15°C° 0 mm 2 m/s 673 mmHg 61%
    02:00 +15°C° 0 mm 1 m/s 673 mmHg 65%
    03:00 +15°C° 0 mm 1 m/s 673 mmHg 66%
    04:00 +14°C° 0 mm 2 m/s 673 mmHg 66%
    05:00 +14°C° 0 mm 2 m/s 673 mmHg 67%
    06:00 +16°C° 0 mm 1 m/s 674 mmHg 59%
    07:00 +20°C° 0 mm 1 m/s 675 mmHg 51%
    08:00 +22°C° 0 mm 1 m/s 676 mmHg 43%
    09:00 +25°C° 0 mm 1 m/s 676 mmHg 35%
    10:00 +27°C° 0 mm 2 m/s 676 mmHg 27%
    11:00 +30°C° 0 mm 2 m/s 677 mmHg 20%
    12:00 +30°C° 0 mm 2 m/s 676 mmHg 18%
    13:00 +31°C° 0 mm 2 m/s 675 mmHg 17%
    14:00 +32°C° 0 mm 2 m/s 675 mmHg 15%
    15:00 +31°C° 0 mm 3 m/s 674 mmHg 17%
    16:00 +30°C° 0 mm 3 m/s 674 mmHg 18%
    17:00 +29°C° 0 mm 4 m/s 673 mmHg 20%
    18:00 +27°C° 0 mm 4 m/s 674 mmHg 23%
    19:00 +24°C° 0 mm 3 m/s 674 mmHg 27%
    20:00 +21°C° 0 mm 3 m/s 674 mmHg 30%
    21:00 +20°C° 0 mm 3 m/s 674 mmHg 36%
    22:00 +19°C° 0 mm 2 m/s 674 mmHg 43%
    23:00 +18°C° 0 mm 2 m/s 674 mmHg 49%

    27 Août, Mardi

    Heure Température Précipitation Vent Pression Humidité
    00:00 +18°C° 0 mm 2 m/s 673 mmHg 53%
    01:00 +17°C° 0 mm 2 m/s 673 mmHg 57%
    02:00 +17°C° 0 mm 2 m/s 673 mmHg 61%
    03:00 +16°C° 0 mm 1 m/s 673 mmHg 63%
    04:00 +16°C° 0 mm 1 m/s 673 mmHg 65%
    05:00 +16°C° 0 mm 1 m/s 673 mmHg 66%
    06:00 +19°C° 0 mm 1 m/s 674 mmHg 59%
    07:00 +21°C° 0 mm 1 m/s 674 mmHg 52%
    08:00 +23°C° 0 mm 1 m/s 675 mmHg 45%
    09:00 +26°C° 0 mm 1 m/s 676 mmHg 37%
    10:00 +30°C° 0 mm 1 m/s 676 mmHg 29%
    11:00 +32°C° 0 mm 0 m/s 676 mmHg 21%
    12:00 +34°C° 0 mm 1 m/s 675 mmHg 20%
    13:00 +35°C° 0 mm 2 m/s 675 mmHg 18%
    14:00 +35°C° 0 mm 3 m/s 674 mmHg 17%
    15:00 +34°C° 0 mm 3 m/s 673 mmHg 18%
    16:00 +33°C° 0 mm 4 m/s 673 mmHg 20%
    17:00 +32°C° 0 mm 4 m/s 672 mmHg 21%
    18:00 +28°C° 0 mm 4 m/s 673 mmHg 24%
    19:00 +26°C° 0 mm 4 m/s 673 mmHg 28%
    20:00 +23°C° 0 mm 4 m/s 673 mmHg 31%
    21:00 +22°C° 0 mm 3 m/s 673 mmHg 35%
    22:00 +21°C° 0 mm 2 m/s 672 mmHg 39%
    23:00 +20°C° 0 mm 1 m/s 672 mmHg 43%

    28 Août, Mercredi

    Heure Température Précipitation Vent Pression Humidité
    00:00 +19°C° 0 mm 2 m/s 672 mmHg 45%
    01:00 +18°C° 0 mm 2 m/s 672 mmHg 46%
    02:00 +18°C° 0 mm 2 m/s 671 mmHg 48%
    03:00 +19°C° 0 mm 1 m/s 671 mmHg 48%
    04:00 +18°C° 0 mm 1 m/s 671 mmHg 49%
    05:00 +18°C° 0 mm 1 m/s 671 mmHg 49%
    06:00 +20°C° 0 mm 1 m/s 672 mmHg 44%
    07:00 +22°C° 0 mm 1 m/s 673 mmHg 38%
    08:00 +25°C° 0 mm 1 m/s 674 mmHg 32%
    09:00 +27°C° 0 mm 1 m/s 674 mmHg 28%
    10:00 +30°C° 0 mm 1 m/s 674 mmHg 23%
    11:00 +34°C° 0 mm 2 m/s 674 mmHg 19%
    12:00 +34°C° 0 mm 2 m/s 674 mmHg 18%
    13:00 +34°C° 0 mm 3 m/s 673 mmHg 17%
    14:00 +34°C° 0 mm 4 m/s 672 mmHg 16%
    15:00 +33°C° 0 mm 4 m/s 672 mmHg 17%
    16:00 +32°C° 0 mm 4 m/s 672 mmHg 18%
    17:00 +30°C° 0 mm 4 m/s 672 mmHg 19%
    18:00 +28°C° 0 mm 4 m/s 672 mmHg 21%
    19:00 +27°C° 0 mm 5 m/s 672 mmHg 23%
    20:00 +25°C° 0 mm 5 m/s 672 mmHg 25%
    21:00 +23°C° 0 mm 5 m/s 673 mmHg 26%
    22:00 +22°C° 0 mm 4 m/s 673 mmHg 27%
    23:00 +21°C° 0 mm 4 m/s 673 mmHg 27%
    Voir plus